Terminal Aerodrome Forecast
Issued by NWS Blacksburg, VA

Home | Current Version | Previous Version | Text Only | Print | Product List | Glossary On
Versions: 1 2 3 4 5 6 7 8 9 10 11 12 13 14 15 16 17 18 19 20 21 22 23 24 25 26 27 28 29 30 31 32 33 34
000
FTUS41 KRNK 230520
TAFROA
TAF
KROA 230520Z 2306/2406 01005KT P6SM BKN250
     FM231600 10006KT P6SM BKN250
     FM240100 05004KT P6SM BKN200=

USA.gov is the U.S. government's official web portal to all federal, state and local government web resources and services.